TimeCST,TemperatureF,Dew PointF,Humidity,Sea Level PressureIn,VisibilityMPH,Wind Direction,Wind SpeedMPH,Gust SpeedMPH,PrecipitationIn,Events,Conditions,WindDirDegrees,DateUTC
12:53 AM,36.0,24.1,62,29.61,10.0,West,11.5,-,N/A,,Clear,260,2012-12-18 06:53:00
1:53 AM,32.0,23.0,69,29.62,10.0,WSW,11.5,-,N/A,,Clear,240,2012-12-18 07:53:00
2:53 AM,30.9,23.0,72,29.63,10.0,West,10.4,-,N/A,,Clear,260,2012-12-18 08:53:00
3:53 AM,35.1,25.0,67,29.64,10.0,West,12.7,-,N/A,,Clear,260,2012-12-18 09:53:00
4:53 AM,37.9,21.0,51,29.63,10.0,West,17.3,25.3,N/A,,Clear,280,2012-12-18 10:53:00
5:53 AM,37.9,19.9,48,29.68,10.0,West,11.5,-,N/A,,Clear,280,2012-12-18 11:53:00
6:53 AM,33.1,21.0,61,29.72,10.0,WNW,11.5,-,N/A,,Clear,300,2012-12-18 12:53:00
7:53 AM,37.0,21.0,52,29.73,10.0,WNW,19.6,-,N/A,,Scattered Clouds,290,2012-12-18 13:53:00
8:53 AM,37.9,21.9,53,29.76,10.0,WNW,16.1,-,N/A,,Partly Cloudy,290,2012-12-18 14:53:00
9:53 AM,41.0,23.0,49,29.78,10.0,WNW,17.3,25.3,N/A,,Mostly Cloudy,290,2012-12-18 15:53:00
10:53 AM,42.1,24.1,49,29.81,10.0,WNW,11.5,-,N/A,,Clear,300,2012-12-18 16:53:00
11:53 AM,45.0,24.1,44,29.79,10.0,WNW,10.4,-,N/A,,Clear,290,2012-12-18 17:53:00
12:53 PM,48.0,25.0,41,29.78,10.0,WNW,10.4,-,N/A,,Clear,290,2012-12-18 18:53:00
1:53 PM,50.0,18.0,28,29.77,10.0,NW,11.5,-,N/A,,Clear,310,2012-12-18 19:53:00
2:53 PM,50.0,15.1,25,29.78,10.0,NW,6.9,-,N/A,,Clear,320,2012-12-18 20:53:00
3:53 PM,48.9,16.0,27,29.79,10.0,WSW,6.9,-,N/A,,Clear,250,2012-12-18 21:53:00
4:53 PM,46.0,15.1,29,29.79,10.0,Calm,Calm,-,N/A,,Overcast,0,2012-12-18 22:53:00
5:53 PM,37.9,19.9,48,29.80,10.0,Calm,Calm,-,N/A,,Partly Cloudy,0,2012-12-18 23:53:00
6:53 PM,39.0,18.0,43,29.81,10.0,South,4.6,-,N/A,,Clear,190,2012-12-19 00:53:00
7:53 PM,34.0,19.0,54,29.82,10.0,Calm,Calm,-,N/A,,Clear,0,2012-12-19 01:53:00
8:53 PM,30.0,21.0,69,29.82,10.0,Calm,Calm,-,N/A,,Clear,0,2012-12-19 02:53:00
9:53 PM,30.9,19.0,61,29.81,10.0,Calm,Calm,-,N/A,,Clear,0,2012-12-19 03:53:00
10:53 PM,32.0,18.0,56,29.80,10.0,Calm,Calm,-,N/A,,Clear,0,2012-12-19 04:53:00
11:53 PM,28.0,21.0,75,29.81,10.0,NW,3.5,-,N/A,,Clear,320,2012-12-19 05:53:00